EJU1976 ELLX-LIML

Flight info

Callsign EJU1976
Flight time 1h 1m
Altitude 33000
Route GTQ3P GTQ DCT DEVDI DCT RIPUS DCT GERSA DCT SOSON DCT ODINA ODINA1Y
Aircraft A319/M-VGDW/C

Departure

Time 2026-05-07 17:42
Airport Luxembourg-Findel International Airport (ELLX)

Arrival

Time 2026-05-07 18:43
Airport Milano Linate Airport (LIML)
Time Latitude Longitude Altitude Speed Heading
2026-05-07 17:15 49.63422 6.21839 1230 ft 0 kts 329°
2026-05-07 17:31 49.63416 6.21844 1229 ft 3 kts 329°
2026-05-07 17:31 49.63393 6.21865 1228 ft 3 kts 330°
2026-05-07 17:31 49.63372 6.21889 1228 ft 3 kts 306°
2026-05-07 17:32 49.63369 6.21926 1227 ft 3 kts 252°
2026-05-07 17:32 49.63372 6.21936 1227 ft 0 kts 239°
2026-05-07 17:34 49.63371 6.21935 1227 ft 0 kts 239°
2026-05-07 17:35 49.63370 6.21931 1227 ft 0 kts 239°
2026-05-07 17:35 49.63364 6.21915 1227 ft 3 kts 239°
2026-05-07 17:35 49.63347 6.21870 1228 ft 7 kts 242°
2026-05-07 17:35 49.63316 6.21777 1229 ft 11 kts 242°
2026-05-07 17:36 49.63283 6.21679 1230 ft 6 kts 243°
2026-05-07 17:36 49.63273 6.21608 1231 ft 7 kts 271°
2026-05-07 17:36 49.63253 6.21529 1232 ft 9 kts 208°
2026-05-07 17:36 49.63180 6.21577 1231 ft 14 kts 149°
2026-05-07 17:37 49.63082 6.21627 1230 ft 15 kts 205°
2026-05-07 17:37 49.63029 6.21491 1232 ft 14 kts 248°
2026-05-07 17:37 49.62987 6.21352 1234 ft 14 kts 243°
2026-05-07 17:37 49.62940 6.21205 1236 ft 17 kts 244°
2026-05-07 17:38 49.62888 6.21035 1237 ft 17 kts 245°
2026-05-07 17:38 49.62834 6.20862 1238 ft 18 kts 244°
2026-05-07 17:38 49.62751 6.20685 1238 ft 21 kts 222°
2026-05-07 17:38 49.62629 6.20521 1234 ft 25 kts 226°
2026-05-07 17:39 49.62508 6.20298 1227 ft 28 kts 236°
2026-05-07 17:39 49.62399 6.20020 1215 ft 32 kts 240°
2026-05-07 17:39 49.62283 6.19703 1203 ft 34 kts 241°
2026-05-07 17:39 49.62167 6.19395 1192 ft 32 kts 240°
2026-05-07 17:40 49.62049 6.19076 1178 ft 35 kts 240°
2026-05-07 17:40 49.61934 6.18805 1167 ft 16 kts 225°
2026-05-07 17:40 49.61865 6.18722 1163 ft 14 kts 205°
2026-05-07 17:40 49.61770 6.18774 1162 ft 16 kts 99°
2026-05-07 17:41 49.61792 6.18859 1166 ft 0 kts 61°
2026-05-07 17:41 49.61874 6.19079 1176 ft 62 kts 60°
2026-05-07 17:41 49.62217 6.19997 1212 ft 132 kts 60°
2026-05-07 17:41 49.62731 6.21405 1618 ft 158 kts 60°
2026-05-07 17:42 49.63283 6.22877 2399 ft 162 kts 59°
2026-05-07 17:42 49.63803 6.24374 3209 ft 168 kts 70°
2026-05-07 17:42 49.63725 6.26210 3753 ft 187 kts 117°
2026-05-07 17:42 49.62809 6.27858 3976 ft 225 kts 133°
2026-05-07 17:43 49.61615 6.29751 3994 ft 258 kts 131°
2026-05-07 17:43 49.60366 6.31814 3994 ft 263 kts 131°
2026-05-07 17:43 49.59148 6.33889 3994 ft 264 kts 130°
2026-05-07 17:43 49.57924 6.36014 3995 ft 264 kts 129°
2026-05-07 17:44 49.56713 6.38122 3994 ft 264 kts 132°
2026-05-07 17:44 49.55283 6.39970 4091 ft 272 kts 146°
2026-05-07 17:44 49.53584 6.41331 4902 ft 278 kts 154°
2026-05-07 17:44 49.51852 6.42533 6067 ft 275 kts 155°
2026-05-07 17:45 49.50125 6.43712 7067 ft 277 kts 156°
2026-05-07 17:45 49.48367 6.44915 8013 ft 281 kts 156°
2026-05-07 17:45 49.46568 6.46153 8969 ft 284 kts 156°
2026-05-07 17:45 49.44761 6.47400 9889 ft 288 kts 156°
2026-05-07 17:46 49.42926 6.48668 10708 ft 295 kts 156°
2026-05-07 17:46 49.41008 6.49992 11216 ft 312 kts 156°
2026-05-07 17:46 49.38996 6.51381 11705 ft 328 kts 156°
2026-05-07 17:46 49.36887 6.52839 12433 ft 336 kts 156°
2026-05-07 17:47 49.34756 6.54312 13258 ft 339 kts 156°
2026-05-07 17:47 49.32581 6.55812 14065 ft 343 kts 156°
2026-05-07 17:47 49.30401 6.57314 14670 ft 347 kts 156°
2026-05-07 17:47 49.28188 6.58837 14989 ft 349 kts 156°
2026-05-07 17:48 49.25962 6.60366 15028 ft 348 kts 157°
2026-05-07 17:48 49.23736 6.61763 15029 ft 347 kts 160°
2026-05-07 17:48 49.21443 6.62931 15030 ft 346 kts 164°
2026-05-07 17:48 49.19095 6.63876 15034 ft 346 kts 166°
2026-05-07 17:49 49.16743 6.64769 15033 ft 346 kts 167°
2026-05-07 17:49 49.14420 6.65649 15033 ft 346 kts 167°
2026-05-07 17:49 49.12056 6.66544 15034 ft 346 kts 167°
2026-05-07 17:49 49.09722 6.67429 15032 ft 346 kts 167°
2026-05-07 17:50 49.07363 6.68323 15031 ft 346 kts 167°
2026-05-07 17:50 49.05004 6.69216 15031 ft 346 kts 167°
2026-05-07 17:50 49.02692 6.70091 15030 ft 346 kts 167°
2026-05-07 17:50 49.00331 6.71027 15030 ft 346 kts 165°
2026-05-07 17:51 48.98053 6.72158 15036 ft 348 kts 161°
2026-05-07 17:51 48.95801 6.73553 15400 ft 356 kts 157°
2026-05-07 17:51 48.93523 6.75110 16266 ft 355 kts 158°
2026-05-07 17:51 48.91291 6.76638 17024 ft 358 kts 158°
2026-05-07 17:52 48.89005 6.78198 17704 ft 362 kts 158°
2026-05-07 17:52 48.86694 6.79774 18371 ft 366 kts 158°
2026-05-07 17:52 48.84345 6.81372 19036 ft 370 kts 158°
2026-05-07 17:52 48.82008 6.82959 19678 ft 373 kts 158°
2026-05-07 17:53 48.79628 6.84576 20303 ft 377 kts 158°
2026-05-07 17:53 48.77195 6.86226 20921 ft 381 kts 158°
2026-05-07 17:53 48.74789 6.87858 21523 ft 385 kts 158°
2026-05-07 17:53 48.72342 6.89515 22110 ft 389 kts 158°
2026-05-07 17:54 48.69838 6.91208 22696 ft 392 kts 158°
2026-05-07 17:54 48.67339 6.92896 23264 ft 396 kts 158°
2026-05-07 17:54 48.64838 6.94585 23815 ft 399 kts 158°
2026-05-07 17:54 48.62276 6.96312 24354 ft 402 kts 158°
2026-05-07 17:55 48.59693 6.98050 24881 ft 406 kts 158°
2026-05-07 17:55 48.57122 6.99779 25384 ft 409 kts 158°
2026-05-07 17:55 48.54517 7.01530 25867 ft 412 kts 158°
2026-05-07 17:55 48.51882 7.03299 26337 ft 415 kts 158°
2026-05-07 17:56 48.49253 7.05063 26775 ft 419 kts 158°
2026-05-07 17:56 48.46576 7.06855 27206 ft 422 kts 158°
2026-05-07 17:56 48.43847 7.08681 27629 ft 426 kts 158°
2026-05-07 17:56 48.41109 7.10511 28048 ft 429 kts 158°
2026-05-07 17:57 48.38393 7.12326 28449 ft 432 kts 158°
2026-05-07 17:57 48.35611 7.14181 28933 ft 433 kts 158°
2026-05-07 17:57 48.32882 7.16000 29398 ft 434 kts 158°
2026-05-07 17:57 48.30095 7.17853 29809 ft 436 kts 158°
2026-05-07 17:58 48.27325 7.19693 30327 ft 436 kts 158°
2026-05-07 17:58 48.24526 7.21552 30885 ft 434 kts 158°
2026-05-07 17:58 48.21794 7.23364 31360 ft 432 kts 158°
2026-05-07 17:58 48.19026 7.25197 31760 ft 433 kts 158°
2026-05-07 17:59 48.16274 7.27016 32079 ft 435 kts 158°
2026-05-07 17:59 48.13479 7.28861 32396 ft 437 kts 159°
2026-05-07 17:59 48.10683 7.30704 32711 ft 439 kts 159°
2026-05-07 17:59 48.07880 7.32550 32983 ft 441 kts 159°
2026-05-07 18:00 48.02263 7.36244 33028 ft 442 kts 159°
2026-05-07 18:00 47.96591 7.39964 33029 ft 442 kts 159°
2026-05-07 18:01 47.90969 7.43647 33020 ft 442 kts 159°
2026-05-07 18:01 47.85297 7.47351 33015 ft 442 kts 159°
2026-05-07 18:02 47.77004 7.53567 33017 ft 447 kts 149°
2026-05-07 18:03 47.72157 7.59326 33017 ft 450 kts 138°
2026-05-07 18:03 47.68033 7.66395 33022 ft 453 kts 129°
2026-05-07 18:04 47.64272 7.74020 33022 ft 466 kts 128°
2026-05-07 18:04 47.60404 7.81860 33020 ft 471 kts 129°
2026-05-07 18:05 47.56501 7.89700 33024 ft 472 kts 129°
2026-05-07 18:05 47.52562 7.97569 33025 ft 472 kts 129°
2026-05-07 18:06 47.48643 8.05375 33025 ft 473 kts 129°
2026-05-07 18:06 47.44709 8.13188 33023 ft 473 kts 129°
2026-05-07 18:07 47.40766 8.20996 33022 ft 474 kts 129°
2026-05-07 18:07 47.36801 8.28829 33019 ft 474 kts 129°
2026-05-07 18:08 47.32859 8.36586 33024 ft 475 kts 129°
2026-05-07 18:08 47.28508 8.43857 33022 ft 470 kts 142°
2026-05-07 18:09 47.23019 8.48921 33030 ft 461 kts 160°
2026-05-07 18:09 47.16958 8.51379 33040 ft 451 kts 177°
2026-05-07 18:10 47.10715 8.52271 33037 ft 448 kts 179°
2026-05-07 18:10 47.04456 8.53139 33041 ft 448 kts 179°
2026-05-07 18:11 46.98268 8.54036 33044 ft 447 kts 179°
2026-05-07 18:11 46.92062 8.54929 33050 ft 446 kts 179°
2026-05-07 18:12 46.85861 8.55816 33043 ft 446 kts 179°
2026-05-07 18:12 46.79618 8.56708 33036 ft 448 kts 179°
2026-05-07 18:13 46.73412 8.57595 32491 ft 449 kts 179°
2026-05-07 18:13 46.70287 8.58040 31911 ft 449 kts 179°
2026-05-07 18:13 46.67181 8.58483 31244 ft 450 kts 179°
2026-05-07 18:13 46.64031 8.58932 30525 ft 452 kts 179°
2026-05-07 18:14 46.60903 8.59375 29795 ft 453 kts 179°
2026-05-07 18:14 46.57796 8.59813 29101 ft 454 kts 178°
2026-05-07 18:14 46.54615 8.60262 28598 ft 455 kts 178°
2026-05-07 18:14 46.51477 8.60707 28117 ft 456 kts 178°
2026-05-07 18:15 46.48313 8.61155 27606 ft 458 kts 178°
2026-05-07 18:15 46.45111 8.61608 27072 ft 459 kts 178°
2026-05-07 18:15 46.41941 8.62056 26553 ft 460 kts 177°
2026-05-07 18:15 46.38739 8.62508 26004 ft 462 kts 177°
2026-05-07 18:16 46.35551 8.62956 25488 ft 462 kts 177°
2026-05-07 18:16 46.32317 8.63413 24955 ft 459 kts 177°
2026-05-07 18:16 46.29168 8.63860 24361 ft 449 kts 176°
2026-05-07 18:16 46.26075 8.64297 23817 ft 440 kts 176°
2026-05-07 18:17 46.23070 8.64721 23285 ft 430 kts 176°
2026-05-07 18:17 46.20099 8.65140 22774 ft 421 kts 177°
2026-05-07 18:17 46.17246 8.65540 22301 ft 412 kts 177°
2026-05-07 18:17 46.14408 8.65936 21863 ft 403 kts 177°
2026-05-07 18:18 46.11649 8.66506 21441 ft 396 kts 169°
2026-05-07 18:18 46.09043 8.67681 20999 ft 392 kts 160°
2026-05-07 18:18 46.06607 8.69387 20547 ft 388 kts 154°
2026-05-07 18:18 46.04247 8.71241 20079 ft 384 kts 153°
2026-05-07 18:19 46.01901 8.73110 19605 ft 380 kts 153°
2026-05-07 18:19 45.99596 8.74939 19146 ft 377 kts 153°
2026-05-07 18:19 45.97275 8.76769 18679 ft 374 kts 153°
2026-05-07 18:19 45.95010 8.78546 18237 ft 370 kts 153°
2026-05-07 18:20 45.92749 8.80313 17811 ft 367 kts 153°
2026-05-07 18:20 45.90509 8.82062 17378 ft 364 kts 153°
2026-05-07 18:20 45.88293 8.83790 16942 ft 361 kts 153°
2026-05-07 18:20 45.86108 8.85492 16503 ft 359 kts 153°
2026-05-07 18:21 45.83911 8.87201 16284 ft 349 kts 153°
2026-05-07 18:21 45.81830 8.88819 16167 ft 336 kts 153°
2026-05-07 18:21 45.79785 8.90408 16028 ft 325 kts 153°
2026-05-07 18:21 45.77807 8.91942 15684 ft 322 kts 152°
2026-05-07 18:22 45.75821 8.93477 15288 ft 320 kts 152°
2026-05-07 18:22 45.74524 8.94481 15033 ft 319 kts 152°
2026-05-07 18:22 45.71893 8.96513 14525 ft 316 kts 152°
2026-05-07 18:22 45.69981 8.97992 14163 ft 314 kts 152°
2026-05-07 18:23 45.68031 8.99498 13794 ft 312 kts 152°
2026-05-07 18:23 45.66139 9.00958 13435 ft 310 kts 152°
2026-05-07 18:23 45.64240 9.02423 13068 ft 308 kts 152°
2026-05-07 18:23 45.62340 9.03885 12705 ft 305 kts 152°
2026-05-07 18:24 45.60469 9.05322 12342 ft 303 kts 152°
2026-05-07 18:24 45.58628 9.06735 11984 ft 301 kts 152°
2026-05-07 18:24 45.56766 9.08164 11624 ft 299 kts 152°
2026-05-07 18:24 45.54933 9.09566 11271 ft 297 kts 152°
2026-05-07 18:25 45.53116 9.10955 11064 ft 289 kts 152°
2026-05-07 18:25 45.51340 9.12226 10972 ft 279 kts 159°
2026-05-07 18:25 45.49492 9.12895 10938 ft 273 kts 173°
2026-05-07 18:25 45.47556 9.13156 10961 ft 275 kts 176°
2026-05-07 18:26 45.45645 9.13345 10969 ft 276 kts 176°
2026-05-07 18:26 45.43704 9.13534 11003 ft 276 kts 176°
2026-05-07 18:26 45.41784 9.13733 10979 ft 276 kts 176°
2026-05-07 18:26 45.39852 9.13942 10954 ft 275 kts 176°
2026-05-07 18:27 45.37954 9.14152 10988 ft 275 kts 176°
2026-05-07 18:27 45.36013 9.14368 10972 ft 274 kts 176°
2026-05-07 18:27 45.34116 9.14580 10973 ft 274 kts 176°
2026-05-07 18:27 45.32210 9.14793 10979 ft 274 kts 176°
2026-05-07 18:28 45.30296 9.15008 10987 ft 274 kts 176°
2026-05-07 18:28 45.28381 9.15222 10981 ft 274 kts 176°
2026-05-07 18:28 45.26482 9.15434 10971 ft 273 kts 176°
2026-05-07 18:28 45.24626 9.15641 10940 ft 259 kts 176°
2026-05-07 18:29 45.22847 9.15840 10975 ft 252 kts 176°
2026-05-07 18:29 45.21075 9.16037 10988 ft 252 kts 176°
2026-05-07 18:29 45.19321 9.16229 10984 ft 252 kts 176°
2026-05-07 18:29 45.17558 9.16423 10963 ft 252 kts 176°
2026-05-07 18:30 45.15819 9.16613 10960 ft 252 kts 176°
2026-05-07 18:30 45.14050 9.16807 10975 ft 251 kts 176°
2026-05-07 18:30 45.12317 9.17002 10964 ft 251 kts 176°
2026-05-07 18:30 45.10552 9.17202 10770 ft 253 kts 176°
2026-05-07 18:31 45.08788 9.17400 10443 ft 253 kts 176°
2026-05-07 18:31 45.07026 9.17599 10137 ft 252 kts 176°
2026-05-07 18:31 45.05298 9.17792 9852 ft 251 kts 176°
2026-05-07 18:31 45.03541 9.17985 9569 ft 249 kts 176°
2026-05-07 18:32 45.01827 9.18174 9293 ft 248 kts 176°
2026-05-07 18:32 45.00106 9.18365 9016 ft 246 kts 175°
2026-05-07 18:32 44.98437 9.18927 8689 ft 246 kts 148°
2026-05-07 18:32 44.97340 9.20677 8397 ft 242 kts 109°
2026-05-07 18:33 44.97168 9.23022 8120 ft 238 kts 83°
2026-05-07 18:33 44.97372 9.25341 7851 ft 237 kts 83°
2026-05-07 18:33 44.97546 9.27632 7577 ft 236 kts 84°
2026-05-07 18:33 44.97702 9.29952 7309 ft 240 kts 84°
2026-05-07 18:34 44.97870 9.32395 7119 ft 260 kts 83°
2026-05-07 18:34 44.98444 9.34898 6903 ft 274 kts 58°
2026-05-07 18:34 44.99782 9.36783 6703 ft 276 kts 31°
2026-05-07 18:34 45.01607 9.37606 6480 ft 277 kts
2026-05-07 18:35 45.03499 9.37221 6261 ft 276 kts 343°
2026-05-07 18:35 45.05289 9.36225 6037 ft 275 kts 335°
2026-05-07 18:35 45.07018 9.35053 5826 ft 273 kts 333°
2026-05-07 18:35 45.08505 9.33419 5577 ft 267 kts 311°
2026-05-07 18:36 45.09711 9.31432 5295 ft 263 kts 319°
2026-05-07 18:36 45.11297 9.30278 4993 ft 258 kts 350°
2026-05-07 18:36 45.13077 9.30383 4718 ft 252 kts
2026-05-07 18:36 45.14817 9.30698 4469 ft 249 kts
2026-05-07 18:37 45.16539 9.30712 4221 ft 245 kts 358°
2026-05-07 18:37 45.18254 9.30564 3965 ft 241 kts 356°
2026-05-07 18:37 45.19918 9.30376 3715 ft 237 kts 355°
2026-05-07 18:37 45.21553 9.30184 3483 ft 234 kts 356°
2026-05-07 18:38 45.23159 9.30002 3268 ft 229 kts 356°
2026-05-07 18:38 45.24739 9.29829 3083 ft 223 kts 356°
2026-05-07 18:38 45.26257 9.29668 3041 ft 211 kts 356°
2026-05-07 18:38 45.27677 9.29517 3049 ft 198 kts 356°
2026-05-07 18:39 45.29012 9.29374 3051 ft 186 kts 356°
2026-05-07 18:39 45.30283 9.29238 2890 ft 178 kts 356°
2026-05-07 18:39 45.31505 9.29107 2635 ft 175 kts 356°
2026-05-07 18:39 45.32722 9.28976 2389 ft 172 kts 356°
2026-05-07 18:40 45.33902 9.28849 2151 ft 165 kts 356°
2026-05-07 18:40 45.35004 9.28730 1950 ft 150 kts 355°
2026-05-07 18:40 45.35995 9.28618 1737 ft 136 kts 355°
2026-05-07 18:40 45.36929 9.28516 1571 ft 133 kts 355°
2026-05-07 18:41 45.37866 9.28417 1405 ft 133 kts 355°
2026-05-07 18:41 45.38796 9.28318 1239 ft 133 kts 355°
2026-05-07 18:41 45.39727 9.28221 1079 ft 133 kts 355°
2026-05-07 18:41 45.40651 9.28121 891 ft 133 kts 354°
2026-05-07 18:42 45.41582 9.28011 722 ft 133 kts 354°
2026-05-07 18:42 45.42504 9.27918 541 ft 132 kts 354°
2026-05-07 18:42 45.43441 9.27817 379 ft 132 kts 354°
2026-05-07 18:42 45.44301 9.27722 352 ft 108 kts 356°
2026-05-07 18:43 45.44897 9.27663 357 ft 69 kts 356°
2026-05-07 18:43 45.45256 9.27641 359 ft 24 kts 12°
2026-05-07 18:43 45.45406 9.27728 361 ft 17 kts 28°
2026-05-07 18:43 45.45460 9.27788 361 ft 9 kts 41°
2026-05-07 18:44 45.45530 9.27813 361 ft 11 kts 360°
2026-05-07 18:44 45.45620 9.27814 362 ft 14 kts
2026-05-07 18:44 45.45726 9.27815 362 ft 16 kts
2026-05-07 18:44 45.45832 9.27823 363 ft 13 kts
2026-05-07 18:45 45.45901 9.27853 364 ft 7 kts 64°
2026-05-07 18:45 45.45905 9.27941 364 ft 13 kts 95°
2026-05-07 18:45 45.45825 9.27984 364 ft 14 kts 182°
2026-05-07 18:45 45.45718 9.27984 363 ft 16 kts 180°
2026-05-07 18:46 45.45603 9.27983 362 ft 16 kts 180°
2026-05-07 18:46 45.45562 9.28019 362 ft 7 kts 97°
2026-05-07 18:46 45.45560 9.28065 362 ft 0 kts 92°
2026-05-07 18:47 45.45560 9.28068 362 ft 0 kts 92°